TimeCST,TemperatureF,Dew PointF,Humidity,Sea Level PressureIn,VisibilityMPH,Wind Direction,Wind SpeedMPH,Gust SpeedMPH,PrecipitationIn,Events,Conditions,WindDirDegrees,DateUTC
12:53 AM,30.9,26.1,82,30.38,9.0,Calm,Calm,-,N/A,,Clear,0,2013-03-08 06:53:00
1:53 AM,28.0,25.0,88,30.38,8.0,Calm,Calm,-,N/A,,Clear,0,2013-03-08 07:53:00
2:53 AM,28.9,24.1,82,30.38,7.0,Calm,Calm,-,N/A,,Clear,0,2013-03-08 08:53:00
3:53 AM,27.0,24.1,89,30.38,7.0,ENE,4.6,-,N/A,,Clear,70,2013-03-08 09:53:00
4:53 AM,28.0,25.0,88,30.40,7.0,East,3.5,-,N/A,,Clear,80,2013-03-08 10:53:00
5:53 AM,28.0,24.1,85,30.41,7.0,Calm,Calm,-,N/A,,Clear,0,2013-03-08 11:53:00
6:53 AM,28.0,24.1,85,30.43,5.0,Calm,Calm,-,N/A,,Clear,0,2013-03-08 12:53:00
7:53 AM,34.0,28.9,82,30.44,7.0,East,4.6,-,N/A,,Clear,90,2013-03-08 13:53:00
8:53 AM,37.9,28.9,70,30.45,10.0,East,8.1,-,N/A,,Clear,100,2013-03-08 14:53:00
9:53 AM,41.0,28.9,62,30.44,10.0,East,9.2,-,N/A,,Clear,100,2013-03-08 15:53:00
10:53 AM,45.0,30.0,56,30.43,10.0,East,8.1,-,N/A,,Clear,80,2013-03-08 16:53:00
11:53 AM,48.0,30.0,50,30.40,10.0,East,8.1,-,N/A,,Clear,90,2013-03-08 17:53:00
12:53 PM,50.0,27.0,41,30.35,10.0,East,6.9,-,N/A,,Clear,80,2013-03-08 18:53:00
1:53 PM,53.1,28.0,38,30.32,10.0,East,10.4,-,N/A,,Clear,80,2013-03-08 19:53:00
2:53 PM,54.0,28.0,37,30.30,10.0,ENE,9.2,16.1,N/A,,Clear,70,2013-03-08 20:53:00
3:53 PM,55.0,25.0,31,30.30,10.0,ESE,6.9,-,N/A,,Clear,120,2013-03-08 21:53:00
4:53 PM,54.0,26.1,34,30.30,10.0,East,4.6,-,N/A,,Clear,100,2013-03-08 22:53:00
5:53 PM,48.9,27.0,43,30.29,10.0,East,3.5,-,N/A,,Clear,90,2013-03-08 23:53:00
6:53 PM,44.1,30.0,58,30.28,10.0,East,4.6,-,N/A,,Clear,90,2013-03-09 00:53:00
7:53 PM,46.9,27.0,46,30.28,10.0,ESE,4.6,-,N/A,,Clear,110,2013-03-09 01:53:00
8:53 PM,42.1,30.0,62,30.27,10.0,East,5.8,-,N/A,,Clear,80,2013-03-09 02:53:00
9:53 PM,43.0,30.0,60,30.28,10.0,East,4.6,-,N/A,,Clear,100,2013-03-09 03:53:00
10:53 PM,42.1,32.0,67,30.27,10.0,East,5.8,-,N/A,,Clear,80,2013-03-09 04:53:00
11:53 PM,45.0,30.0,56,30.25,10.0,ESE,4.6,-,N/A,,Clear,120,2013-03-09 05:53:00